TimeMST,TemperatureF,Dew PointF,Humidity,Sea Level PressureIn,VisibilityMPH,Wind Direction,Wind SpeedMPH,Gust SpeedMPH,PrecipitationIn,Events,Conditions,WindDirDegrees,DateUTC
12:53 AM,10.9,7.0,84,29.98,10.0,ESE,9.2,-,N/A,,Clear,110,2013-12-15 07:53:00
1:53 AM,10.9,7.0,84,29.97,10.0,ESE,9.2,-,N/A,,Clear,120,2013-12-15 08:53:00
2:53 AM,10.0,7.0,87,29.96,10.0,SE,8.1,-,N/A,,Clear,130,2013-12-15 09:53:00
3:53 AM,10.0,7.0,87,29.96,10.0,SE,5.8,-,N/A,,Overcast,140,2013-12-15 10:53:00
4:53 AM,9.0,5.0,84,29.94,10.0,NE,5.8,-,N/A,,Clear,50,2013-12-15 11:53:00
5:53 AM,10.9,8.1,88,29.93,10.0,ENE,4.6,-,N/A,,Clear,70,2013-12-15 12:53:00
6:53 AM,12.0,8.1,84,29.94,10.0,ESE,5.8,-,N/A,,Mostly Cloudy,120,2013-12-15 13:53:00
7:53 AM,15.1,10.9,84,29.93,10.0,Calm,Calm,-,N/A,,Clear,0,2013-12-15 14:53:00
8:53 AM,12.0,8.1,84,29.94,10.0,East,6.9,-,N/A,,Clear,100,2013-12-15 15:53:00
9:53 AM,19.9,14.0,78,29.92,10.0,Calm,Calm,-,N/A,,Clear,0,2013-12-15 16:53:00
10:53 AM,32.0,21.9,66,29.90,10.0,Calm,Calm,-,N/A,,Clear,0,2013-12-15 17:53:00
11:53 AM,28.9,21.0,72,29.88,10.0,West,5.8,-,N/A,,Clear,260,2013-12-15 18:53:00
12:53 PM,36.0,25.0,64,29.86,10.0,West,4.6,-,N/A,,Clear,280,2013-12-15 19:53:00
1:53 PM,39.0,30.0,70,29.85,10.0,West,12.7,-,N/A,,Clear,260,2013-12-15 20:53:00
2:53 PM,39.0,30.0,70,29.85,10.0,West,15.0,-,N/A,,Clear,270,2013-12-15 21:53:00
3:53 PM,39.0,30.9,73,29.86,10.0,West,16.1,24.2,N/A,,Clear,280,2013-12-15 22:53:00
4:53 PM,37.9,30.9,76,29.87,10.0,West,13.8,-,N/A,,Clear,280,2013-12-15 23:53:00
5:53 PM,37.0,30.0,76,29.86,10.0,West,12.7,-,N/A,,Clear,280,2013-12-16 00:53:00
6:53 PM,37.0,30.0,76,29.86,10.0,WNW,13.8,-,N/A,,Clear,290,2013-12-16 01:53:00
7:53 PM,36.0,28.9,76,29.88,10.0,WNW,11.5,-,N/A,,Clear,290,2013-12-16 02:53:00
8:53 PM,37.0,28.9,73,29.90,10.0,NW,13.8,-,N/A,,Mostly Cloudy,310,2013-12-16 03:53:00
9:53 PM,37.0,28.0,70,29.96,10.0,North,25.3,33.4,N/A,,Overcast,360,2013-12-16 04:53:00
10:53 PM,35.1,27.0,72,29.98,10.0,NNW,8.1,-,N/A,,Overcast,330,2013-12-16 05:53:00
11:53 PM,34.0,27.0,75,30.02,10.0,NNW,10.4,-,N/A,,Overcast,330,2013-12-16 06:53:00